Tracking 29799 objects as of 11-Oct-2024
HD Live streaming from Space Station
objects crossing your sky now

COSMOS 970 DEB

Track COSMOS 970 DEB now!
10-day predictions


NORAD ID: 10885
Int'l Code: 1977-121AG
Perigee: 959.9 km
Apogee: 1,060.0 km
Inclination: 65.8 °
Period: 105.2 minutes
Semi major axis: 7380 km
RCS: 0.0086 m2 (small)
Launch date: December 21, 1977
Source: Commonwealth of Independent States (former USSR) (CIS)
Launch site: TYURATAM MISSILE AND SPACE COMPLEX (TTMTR)

Note: This is SATELLITE DEBRIS
Your satellite tracking list
Your tracking list is empty




NASA's NSSDC Master Catalog

Two Line Element Set (TLE):
1 10885U 77121AG  24284.33288814  .00002440  00000-0  28627-2 0  9994
2 10885  65.7910 129.9608 0067790 320.4624 213.2736 13.69091295323329
Source of the keplerian elements: AFSPC